TimeEST,TemperatureF,Dew PointF,Humidity,Sea Level PressureIn,VisibilityMPH,Wind Direction,Wind SpeedMPH,Gust SpeedMPH,PrecipitationIn,Events,Conditions,WindDirDegrees,DateUTC
12:54 AM,32.0,30.9,96,30.08,9.0,Calm,Calm,-,N/A,,Clear,0,2013-02-15 05:54:00
1:54 AM,33.1,30.9,92,30.07,8.0,Calm,Calm,-,N/A,,Clear,0,2013-02-15 06:54:00
2:54 AM,30.9,30.9,100,30.07,6.0,Calm,Calm,-,N/A,,Clear,0,2013-02-15 07:54:00
3:54 AM,30.9,30.0,96,30.06,4.0,Calm,Calm,-,N/A,,Clear,0,2013-02-15 08:54:00
4:54 AM,30.9,28.9,92,30.06,7.0,Calm,Calm,-,N/A,,Clear,0,2013-02-15 09:54:00
5:54 AM,30.9,30.0,96,30.07,6.0,Calm,Calm,-,N/A,,Clear,0,2013-02-15 10:54:00
6:54 AM,30.9,28.9,92,30.09,6.0,Calm,Calm,-,N/A,,Clear,0,2013-02-15 11:54:00
7:54 AM,30.9,30.0,96,30.10,6.0,Calm,Calm,-,N/A,,Clear,0,2013-02-15 12:54:00
8:54 AM,43.0,39.0,86,30.10,10.0,ENE,4.6,-,N/A,,Clear,70,2013-02-15 13:54:00
9:54 AM,51.1,37.9,61,30.09,10.0,Calm,Calm,-,N/A,,Clear,0,2013-02-15 14:54:00
10:54 AM,55.0,35.1,47,30.09,10.0,SW,3.5,-,N/A,,Clear,220,2013-02-15 15:54:00
11:54 AM,57.9,30.0,35,30.07,10.0,Variable,5.8,-,N/A,,Clear,0,2013-02-15 16:54:00
12:54 PM,61.0,30.9,32,30.04,10.0,Variable,5.8,-,N/A,,Clear,0,2013-02-15 17:54:00
1:54 PM,60.1,28.0,30,30.00,10.0,SSW,9.2,16.1,N/A,,Clear,200,2013-02-15 18:54:00
2:54 PM,60.1,28.0,30,29.98,10.0,WSW,8.1,-,N/A,,Partly Cloudy,240,2013-02-15 19:54:00
3:54 PM,61.0,28.0,29,29.96,10.0,SSW,8.1,-,N/A,,Clear,210,2013-02-15 20:54:00
4:54 PM,60.1,28.9,31,29.94,10.0,South,9.2,-,N/A,,Clear,190,2013-02-15 21:54:00
5:54 PM,57.0,28.9,34,29.94,10.0,SSW,4.6,-,N/A,,Clear,200,2013-02-15 22:54:00
6:54 PM,52.0,30.9,45,29.95,10.0,Calm,Calm,-,N/A,,Partly Cloudy,0,2013-02-15 23:54:00
7:54 PM,51.1,32.0,48,29.95,10.0,Calm,Calm,-,N/A,,Overcast,0,2013-02-16 00:54:00
8:54 PM,51.1,32.0,48,29.96,10.0,Variable,4.6,-,N/A,,Overcast,0,2013-02-16 01:54:00
9:54 PM,52.0,36.0,54,29.96,10.0,North,9.2,-,N/A,,Overcast,360,2013-02-16 02:54:00
10:54 PM,48.9,35.1,59,29.98,10.0,North,8.1,-,N/A,,Partly Cloudy,360,2013-02-16 03:54:00
11:54 PM,48.0,33.1,56,29.97,10.0,Variable,5.8,-,N/A,,Overcast,0,2013-02-16 04:54:00